Starlink 11306

operational
NORAD ID: 61254 Int'l Des: 2024-175 Owner: SPXS Country: US Constellation: starlink
LEOCIRCULAR

About Starlink 11306

Description loading...

Live Position

Loading 3D Globe...

Upcoming Passes

Altitude History

Altitude vs Time

uPlot chart will show altitude changes over time

Two-Line Element Set

1 61254U 24175M 25259.54791925 -.00002968 00000-0 -19668-4 0 9993
2 61254 53.1583 194.8544 0001253 105.1781 254.9376 15.69685158 57219
Epoch: Sep 16, 2025 • Age: 13 hours

Current Status

Altitude 361.7 km
Velocity 7.70 km/s
Sub-Earth Point 35.52°N, 45.29°W
Launch Date Sep 25, 2024
Age 0.9 years
Type internet

Technical Details

Classification Payload
Mass 960.00 kg
Dry Mass 910.00 kg
Total Mass 960.00 kg
Length 0.30 m
Diameter 4.10 m
Span 29.00 m
Shape Box + pan
Manufacturer SPXS
Bus Type Starlink V2MD
Phase Status In Orbit
Owner/State SPXS/US

Large Constellations

Loading constellations...